01.05.2024;15:00;11
01.05.2024;14:00;11
01.05.2024;13:00;11
01.05.2024;12:00;10
01.05.2024;11:00;10
01.05.2024;10:00;11
01.05.2024;09:00;11
01.05.2024;08:00;10
01.05.2024;07:00;10
01.05.2024;06:00;10
01.05.2024;05:00;10
01.05.2024;04:00;10
01.05.2024;03:00;11
01.05.2024;02:00;11
01.05.2024;01:00;11
01.05.2024;00:00;12
30.04.2024;23:00;12
30.04.2024;22:00;12
30.04.2024;21:00;12
30.04.2024;20:00;12
30.04.2024;19:00;12
30.04.2024;18:00;11
30.04.2024;17:00;11
30.04.2024;16:00;10
30.04.2024;15:00;10
30.04.2024;14:00;9
30.04.2024;13:00;9
30.04.2024;12:00;9
30.04.2024;11:00;9
30.04.2024;10:00;8
30.04.2024;09:00;8
30.04.2024;08:00;8
30.04.2024;07:00;8
30.04.2024;06:00;8
30.04.2024;05:00;8
30.04.2024;04:00;8
30.04.2024;03:00;8
30.04.2024;02:00;7
30.04.2024;01:00;7
30.04.2024;00:00;7
29.04.2024;23:00;7
29.04.2024;22:00;6
29.04.2024;21:00;6
29.04.2024;20:00;5
29.04.2024;19:00;5
29.04.2024;18:00;5
29.04.2024;17:00;5
29.04.2024;16:00;5
